CW0506 Weather Reports


Display with metric or nautical units.
time (UTC)temp
F
wind
direction
speed
MPH
gust
MPH
rain 1hr
in
rain 24hr
in
rain mn
in
humidity
%
barometer
mb
20210306052927 27 345 5.0 13.0 0.00 0.00 0.00 59 3404.4
20210306045929 27 273 3.0 18.0 0.00 0.00 0.00 57 3403.6
20210306042836 27 222 1.0 12.0 0.00 0.00 0.00 55 3402.8
20210306035821 28 334 8.0 13.0 0.00 0.00 0.00 57 3402.4
20210306032929 28 274 4.0 12.0 0.00 0.00 0.00 60 3402.7
20210306030019 29 10 3.0 11.0 0.00 0.00 0.00 53 3402.5
20210306022756 30 245 1.0 11.0 0.00 0.00 0.00 47 3400.7
20210306020054 30 249 5.0 11.0 0.00 0.00 0.00 45 3398.8
20210306012906 30 319 1.0 12.0 0.00 0.00 0.00 43 3398.3
20210306005855 29 184 2.0 6.0 0.00 0.00 0.00 41 3397.6
20210306003123 29 244 2.0 10.0 0.00 0.00 0.00 39 3397.2
20210305235936 30 261 1.0 13.0 0.00 0.00 0.00 35 3396.8
20210305232900 30 347 1.0 13.0 0.00 0.00 0.00 32 3394.5
20210305225918 31 313 1.0 13.0 0.00 0.00 0.00 30 3392.3
20210305222847 32 329 1.0 13.0 0.00 0.00 0.00 29 3390.2
20210305215851 34 169 5.0 14.0 0.00 0.00 0.00 27 3388.3
20210305212937 34 5 2.0 17.0 0.00 0.00 0.00 27 3387.1
20210305205808 34 98 4.0 17.0 0.00 0.00 0.00 27 3386.3
20210305202846 33 181 4.0 20.0 0.00 0.00 0.00 27 3386.8
20210305200156 33 59 2.0 18.0 0.00 0.00 0.00 27 3387.2
20210305192955 33 318 9.0 21.0 0.00 0.00 0.00 24 3387.6
20210305185851 33 265 7.0 16.0 0.00 0.00 0.00 26 3388.1
20210305182755 32 211 2.0 23.0 0.00 0.00 0.00 27 3388.4
20210305175958 30 5 3.0 24.0 0.00 0.00 0.00 29 3390.1
20210305172904 30 290 3.0 17.0 0.00 0.00 0.00 30 3392.0
20210305170026 29 301 8.0 23.0 0.00 0.00 0.00 31 3393.7
20210305163405 28 273 8.0 19.0 0.00 0.00 0.00 31 3394.1
20210305155818 27 316 5.0 18.0 0.00 0.00 0.00 31 3394.2
20210305153044 25 41 5.0 18.0 0.00 0.00 0.00 35 3395.2
20210305145923 23 294 8.0 14.0 0.00 0.00 0.00 39 3396.5
20210305142817 22 283 7.0 16.0 0.00 0.00 0.00 42 3397.0
20210305140110 23 75 5.0 16.0 0.00 0.00 0.00 41 3397.5
20210305132901 22 276 11.0 14.0 0.00 0.00 0.00 43 3396.6
20210305130038 21 44 4.0 11.0 0.00 0.00 0.00 46 3397.0
20210305123211 20 360 2.0 11.0 0.00 0.00 0.00 47 3395.7
20210305112850 20 145 0.0 13.0 0.00 0.00 0.00 49 3394.9
20210305105948 20 315 9.0 12.0 0.00 0.00 0.00 48 3394.6
20210305102756 21 337 5.0 12.0 0.00 0.00 0.00 48 3394.3
20210305095927 21 294 3.0 12.0 0.00 0.00 0.00 45 3393.2
20210305092826 21 240 8.0 14.0 0.00 0.00 0.00 44 3393.1
20210305085802 22 293 4.0 14.0 0.00 0.00 0.00 42 3393.2
20210305083035 22 327 1.0 14.0 0.00 0.00 0.00 42 3391.1
20210305075937 22 93 2.0 21.0 0.00 0.00 0.00 45 3390.8
20210305072834 23 39 7.0 21.0 0.00 0.00 0.00 46 3389.6
20210305065845 23 48 1.0 24.0 0.00 0.00 0.00 47 3390.9
20210305062955 23 259 6.0 16.0 0.00 0.00 0.00 48 3389.3
20210305055858 23 294 8.0 18.0 0.00 0.00 0.00 48 3390.9